Location: Fort Wayne
(41.1310°N, 85.1290°W)
Time: 07:20:55
(UTC-04:00)

Cosmos 2219 Rocket - Visible Passes

Search period start: 29 April 2017 00:00
Search period end: 09 May 2017 00:00
Orbit: 828 x 847 km, 71.0° (Epoch: 27 April)

Date Brightness Start Highest point End Pass type
(mag) Time Alt. Az. Time Alt. Az. Time Alt. Az.
29 Apr 2.9 22:01:53 20° SSE 22:04:48 32° ESE 22:09:42 10° NE visible
29 Apr 3.5 23:43:30 10° SW 23:48:38 37° WNW 23:53:50 10° N visible
30 Apr 3.0 21:43:46 10° SSE 21:48:30 29° ESE 21:53:16 10° NE visible
30 Apr 3.4 23:27:02 10° SW 23:32:15 39° WNW 23:37:32 10° N visible
01 May 3.1 21:27:35 10° SSE 21:32:11 27° ESE 21:36:49 10° NE visible
01 May 3.3 23:10:36 10° SW 23:15:52 42° WNW 23:21:14 10° N visible
02 May 3.2 21:11:26 10° SSE 21:15:53 25° ESE 21:20:22 10° NE visible
02 May 3.2 22:54:10 10° SW 22:59:31 45° WNW 23:04:55 10° NNE visible
03 May 5.3 06:05:09 10° NNE 06:08:10 14° NE 06:11:10 10° E visible
03 May 3.1 22:37:43 10° SW 22:43:08 49° WNW 22:48:36 10° NNE visible
04 May 5.4 05:49:01 10° NNE 05:51:44 13° NE 05:54:26 10° ENE visible
04 May 3.0 22:21:18 10° SW 22:26:45 53° WNW 22:32:17 10° NNE visible
05 May 5.5 05:32:55 10° NNE 05:35:18 13° NE 05:37:41 10° ENE visible
05 May 2.9 22:04:54 10° SW 22:10:24 57° WNW 22:15:58 10° NNE visible
05 May 5.5 23:55:25 10° NW 23:55:39 10° NW 23:55:53 10° NW visible
06 May 5.6 05:16:53 10° NNE 05:18:52 12° NE 05:20:51 10° ENE visible
06 May 2.8 21:48:30 10° SW 21:54:02 62° WNW 21:59:38 10° NNE visible
06 May 5.4 23:37:51 10° WNW 23:39:12 11° NW 23:40:34 10° NNW visible
07 May 5.7 05:00:57 10° NNE 05:02:26 11° NE 05:03:54 10° ENE visible
07 May 2.7 21:32:06 10° SSW 21:37:40 67° WNW 21:43:18 10° NNE visible
07 May 5.4 23:20:52 10° WNW 23:22:46 12° NW 23:24:40 10° NNW visible
08 May 5.9 04:45:22 10° NE 04:45:59 10° NE 04:46:35 10° NE visible
08 May 2.6 21:15:43 10° SSW 21:21:19 72° WNW 21:26:58 10° NNE visible
08 May 5.5 23:04:01 10° WNW 23:06:19 12° NW 23:08:39 10° NNW visible
